TimeCDT,TemperatureF,Dew PointF,Humidity,Sea Level PressureIn,VisibilityMPH,Wind Direction,Wind SpeedMPH,Gust SpeedMPH,PrecipitationIn,Events,Conditions,WindDirDegrees,DateUTC
10:35 AM,69.8,55.4,60,30.17,10.0,SSW,3.5,-,N/A,,Clear,200,2013-10-10 15:35:00
10:55 AM,69.8,55.4,60,30.17,10.0,Calm,Calm,-,N/A,,Clear,0,2013-10-10 15:55:00
11:15 AM,71.6,55.4,57,30.17,10.0,WSW,5.8,-,N/A,,Clear,240,2013-10-10 16:15:00
12:15 PM,73.4,53.6,50,30.14,10.0,SW,3.5,-,N/A,,Unknown,220,2013-10-10 17:15:00
2:35 PM,75.2,51.8,44,30.09,10.0,South,6.9,-,N/A,,Clear,190,2013-10-10 19:35:00
3:15 PM,78.8,51.8,39,30.08,10.0,SW,3.5,-,N/A,,Clear,220,2013-10-10 20:15:00
4:55 PM,77.0,53.6,44,30.06,10.0,South,6.9,-,N/A,,Clear,190,2013-10-10 21:55:00
5:15 PM,77.0,51.8,41,30.05,10.0,SW,3.5,-,N/A,,Clear,230,2013-10-10 22:15:00
5:35 PM,75.2,53.6,47,30.05,10.0,Calm,Calm,-,N/A,,Clear,0,2013-10-10 22:35:00
5:55 PM,75.2,53.6,47,30.05,10.0,Calm,Calm,-,N/A,,Clear,0,2013-10-10 22:55:00
6:15 PM,73.4,53.6,50,30.05,2.5,Calm,Calm,-,N/A,,Haze,0,2013-10-10 23:15:00
6:35 PM,69.8,53.6,56,30.05,10.0,Calm,Calm,-,N/A,,Clear,0,2013-10-10 23:35:00
6:55 PM,66.2,53.6,64,30.05,10.0,Calm,Calm,-,N/A,,Clear,0,2013-10-10 23:55:00
7:15 PM,62.6,53.6,72,30.05,7.0,ESE,3.5,-,N/A,,Clear,110,2013-10-11 00:15:00
7:35 PM,62.6,53.6,72,30.05,7.0,ESE,4.6,-,N/A,,Clear,110,2013-10-11 00:35:00
7:55 PM,60.8,53.6,77,30.05,10.0,ESE,4.6,-,N/A,,Clear,110,2013-10-11 00:55:00
8:15 PM,60.8,53.6,77,30.05,10.0,ESE,5.8,-,N/A,,Clear,110,2013-10-11 01:15:00
8:35 PM,60.8,53.6,77,30.05,10.0,ESE,6.9,-,N/A,,Clear,120,2013-10-11 01:35:00
8:55 PM,60.8,53.6,77,30.05,10.0,ESE,8.1,-,N/A,,Clear,120,2013-10-11 01:55:00
9:15 PM,60.8,53.6,77,30.05,10.0,ESE,8.1,-,N/A,,Clear,120,2013-10-11 02:15:00
9:35 PM,60.8,53.6,77,30.05,10.0,ESE,6.9,-,N/A,,Clear,120,2013-10-11 02:35:00
9:55 PM,59.0,53.6,82,30.05,10.0,SE,5.8,-,N/A,,Clear,130,2013-10-11 02:55:00
10:15 PM,59.0,53.6,82,30.05,10.0,SE,6.9,-,N/A,,Clear,130,2013-10-11 03:15:00
10:35 PM,57.2,53.6,88,30.05,10.0,SE,4.6,-,N/A,,Clear,130,2013-10-11 03:35:00
10:55 PM,-9999,51.8,N/A,30.05,10.0,SE,6.9,-,N/A,,Unknown,130,2013-10-11 03:55:00
11:35 PM,55.4,51.8,88,30.05,10.0,ESE,5.8,-,N/A,,Clear,120,2013-10-11 04:35:00
11:55 PM,55.4,51.8,88,30.04,10.0,ESE,6.9,-,N/A,,Clear,120,2013-10-11 04:55:00